Regional Weather Roundup
Issued by NWS

Home | Current Version | Previous Version | Graphics & Text | Print | Product List | Glossary On
Versions: 1 2 3 4 5 6 7 8 9 10 11 12 13 14 15 16 17 18 19 20 21 22 23 24 25 26 27 28 29 30 31 32 33 34 35 36 37 38 39 40 41 42 43 44 45 46 47 48 49 50
000
ASUS43 KBIS 250002
RWRND

NORTH DAKOTA REGIONAL WEATHER ROUNDUP
NATIONAL WEATHER SERVICE BISMARCK ND
600 PM CST FRI NOV 24 2017

NOTE: "FAIR" INDICATES FEW OR NO CLOUDS BELOW 12,000 FEET WITH NO
SIGNIFICANT WEATHER AND/OR OBSTRUCTIONS TO VISIBILITY.


NDZ001>003-009>011-017-250100-
NORTHWEST NORTH DAKOTA

CITY           SKY/WX    TMP DP  RH WIND       PRES   REMARKS
WILLISTON      CLOUDY    45  32  60 W16       29.79R
6HR MIN TEMP:  45; 6HR MAX TEMP:  53;

MINOT          PTCLDY    42  31  64 W15       29.74R
MINOT AFB      PTCLDY    39  30  69 NW13      29.73R
$$

NDZ018>021-031>035-040>046-250100-
SOUTHWEST NORTH DAKOTA

CITY           SKY/WX    TMP DP  RH WIND       PRES   REMARKS
BISMARCK       CLEAR     48  32  53 W10       29.80R
6HR MIN TEMP:  48; 6HR MAX TEMP:  56;

DICKINSON      CLEAR     36  27  69 W10       29.82R
GARRISON         N/A     41  32  70 W9        29.77R
6HR MIN TEMP:  41; 6HR MAX TEMP:  50;

HETTINGER ARPT PTCLDY    35  28  75 NW9       29.88R
$$

NDZ004>008-012>016-024-026-027-054-250100-
NORTHEAST NORTH DAKOTA

CITY           SKY/WX    TMP DP  RH WIND       PRES   REMARKS
GRAND FORKS    CLEAR     40  34  79 NW12      29.62R
GRND FRKS AFB  CLEAR     39  33  79 NW10      29.62R
DEVILS LAKE    CLEAR     38  32  79 W16       29.68R
$$

NDZ022-023-025-028>030-036>039-047>053-250100-
SOUTHEAST NORTH DAKOTA

CITY           SKY/WX    TMP DP  RH WIND       PRES   REMARKS
FARGO          CLEAR     39  33  79 W10       29.64R
6HR MIN TEMP:  39; 6HR MAX TEMP:  51;

JAMESTOWN      CLEAR     41  34  76 W13       29.70R
$$




USA.gov is the U.S. government's official web portal to all federal, state and local government web resources and services.